utcTime,localTime,pm25,nowcast
2022-01-15 15:00:00 +0000,2022-01-15 08:00:00 -0700,0.7,NA
2022-01-15 16:00:00 +0000,2022-01-15 09:00:00 -0700,0.6,0.6
2022-01-15 17:00:00 +0000,2022-01-15 10:00:00 -0700,0.8,0.7
2022-01-15 18:00:00 +0000,2022-01-15 11:00:00 -0700,1,0.8
2022-01-15 19:00:00 +0000,2022-01-15 12:00:00 -0700,1.2,1
2022-01-15 20:00:00 +0000,2022-01-15 13:00:00 -0700,0.8,0.9
2022-01-15 21:00:00 +0000,2022-01-15 14:00:00 -0700,0.8,0.8
2022-01-15 22:00:00 +0000,2022-01-15 15:00:00 -0700,0.8,0.8
2022-01-15 23:00:00 +0000,2022-01-15 16:00:00 -0700,1.1,0.9
2022-01-16 00:00:00 +0000,2022-01-15 17:00:00 -0700,1.1,1
2022-01-16 01:00:00 +0000,2022-01-15 18:00:00 -0700,2.7,1.8
2022-01-16 02:00:00 +0000,2022-01-15 19:00:00 -0700,3.9,2.8
2022-01-16 03:00:00 +0000,2022-01-15 20:00:00 -0700,2.4,2.6
2022-01-16 04:00:00 +0000,2022-01-15 21:00:00 -0700,2.4,2.5
2022-01-16 05:00:00 +0000,2022-01-15 22:00:00 -0700,2.1,2.3
2022-01-16 06:00:00 +0000,2022-01-15 23:00:00 -0700,2,2.1
2022-01-16 07:00:00 +0000,2022-01-16 00:00:00 -0700,2,2
2022-01-16 08:00:00 +0000,2022-01-16 01:00:00 -0700,2.1,2
2022-01-16 09:00:00 +0000,2022-01-16 02:00:00 -0700,1.9,1.9
2022-01-16 10:00:00 +0000,2022-01-16 03:00:00 -0700,1.3,1.6
2022-01-16 11:00:00 +0000,2022-01-16 04:00:00 -0700,NA,NA
2022-01-16 12:00:00 +0000,2022-01-16 05:00:00 -0700,1.9,1.8
2022-01-16 13:00:00 +0000,2022-01-16 06:00:00 -0700,1.9,1.8
2022-01-16 14:00:00 +0000,2022-01-16 07:00:00 -0700,3,2.4
2022-01-16 15:00:00 +0000,2022-01-16 08:00:00 -0700,1.8,2.1
2022-01-16 16:00:00 +0000,2022-01-16 09:00:00 -0700,1.4,1.7
2022-01-16 17:00:00 +0000,2022-01-16 10:00:00 -0700,1.3,1.5
2022-01-16 18:00:00 +0000,2022-01-16 11:00:00 -0700,1.5,1.5
2022-01-16 19:00:00 +0000,2022-01-16 12:00:00 -0700,2.5,2
2022-01-16 20:00:00 +0000,2022-01-16 13:00:00 -0700,3.1,2.5
2022-01-16 21:00:00 +0000,2022-01-16 14:00:00 -0700,3.9,3.2
2022-01-16 22:00:00 +0000,2022-01-16 15:00:00 -0700,4.4,3.8
2022-01-16 23:00:00 +0000,2022-01-16 16:00:00 -0700,6.9,5.3
2022-01-17 00:00:00 +0000,2022-01-16 17:00:00 -0700,8.9,7.1
2022-01-17 01:00:00 +0000,2022-01-16 18:00:00 -0700,13.7,10.4
2022-01-17 02:00:00 +0000,2022-01-16 19:00:00 -0700,21.1,15.7
2022-01-17 03:00:00 +0000,2022-01-16 20:00:00 -0700,19.6,17.6
2022-01-17 04:00:00 +0000,2022-01-16 21:00:00 -0700,9,13.3
2022-01-17 05:00:00 +0000,2022-01-16 22:00:00 -0700,1.1,7.2
2022-01-17 06:00:00 +0000,2022-01-16 23:00:00 -0700,0.5,3.8
2022-01-17 07:00:00 +0000,2022-01-17 00:00:00 -0700,0.5,2.1
2022-01-17 08:00:00 +0000,2022-01-17 01:00:00 -0700,0.6,1.3
2022-01-17 09:00:00 +0000,2022-01-17 02:00:00 -0700,0.6,0.9
2022-01-17 10:00:00 +0000,2022-01-17 03:00:00 -0700,0.6,0.7
2022-01-17 11:00:00 +0000,2022-01-17 04:00:00 -0700,0.5,0.6
2022-01-17 12:00:00 +0000,2022-01-17 05:00:00 -0700,0.4,0.5
2022-01-17 13:00:00 +0000,2022-01-17 06:00:00 -0700,0.6,0.5
2022-01-17 14:00:00 +0000,2022-01-17 07:00:00 -0700,0.7,0.6
2022-01-17 15:00:00 +0000,2022-01-17 08:00:00 -0700,0.9,0.7
2022-01-17 16:00:00 +0000,2022-01-17 09:00:00 -0700,0.8,0.7
2022-01-17 17:00:00 +0000,2022-01-17 10:00:00 -0700,1.2,0.9
2022-01-17 18:00:00 +0000,2022-01-17 11:00:00 -0700,1,0.9
2022-01-17 19:00:00 +0000,2022-01-17 12:00:00 -0700,1,0.9
2022-01-17 20:00:00 +0000,2022-01-17 13:00:00 -0700,1,0.9
2022-01-17 21:00:00 +0000,2022-01-17 14:00:00 -0700,0.9,0.9
2022-01-17 22:00:00 +0000,2022-01-17 15:00:00 -0700,1,0.9
2022-01-17 23:00:00 +0000,2022-01-17 16:00:00 -0700,0.7,0.8
2022-01-18 00:00:00 +0000,2022-01-17 17:00:00 -0700,0.9,0.8
2022-01-18 01:00:00 +0000,2022-01-17 18:00:00 -0700,1.7,1.2
2022-01-18 02:00:00 +0000,2022-01-17 19:00:00 -0700,2,1.6
2022-01-18 03:00:00 +0000,2022-01-17 20:00:00 -0700,2.7,2.1
2022-01-18 04:00:00 +0000,2022-01-17 21:00:00 -0700,5.1,3.6
2022-01-18 05:00:00 +0000,2022-01-17 22:00:00 -0700,3.5,3.5
2022-01-18 06:00:00 +0000,2022-01-17 23:00:00 -0700,3.2,3.3
2022-01-18 07:00:00 +0000,2022-01-18 00:00:00 -0700,2.1,2.7
2022-01-18 08:00:00 +0000,2022-01-18 01:00:00 -0700,1.6,2.1
2022-01-18 09:00:00 +0000,2022-01-18 02:00:00 -0700,1,1.5
2022-01-18 10:00:00 +0000,2022-01-18 03:00:00 -0700,0.8,1.1
2022-01-18 11:00:00 +0000,2022-01-18 04:00:00 -0700,0.6,0.8
2022-01-18 12:00:00 +0000,2022-01-18 05:00:00 -0700,0.6,0.7
2022-01-18 13:00:00 +0000,2022-01-18 06:00:00 -0700,0.7,0.7
2022-01-18 14:00:00 +0000,2022-01-18 07:00:00 -0700,1.2,0.9
2022-01-18 15:00:00 +0000,2022-01-18 08:00:00 -0700,1.3,1.1
2022-01-18 16:00:00 +0000,2022-01-18 09:00:00 -0700,1.3,1.2
2022-01-18 17:00:00 +0000,2022-01-18 10:00:00 -0700,2.9,2
2022-01-18 18:00:00 +0000,2022-01-18 11:00:00 -0700,3.1,2.5
2022-01-18 19:00:00 +0000,2022-01-18 12:00:00 -0700,3.4,2.9
2022-01-18 20:00:00 +0000,2022-01-18 13:00:00 -0700,4.3,3.6
2022-01-18 21:00:00 +0000,2022-01-18 14:00:00 -0700,4.4,4
2022-01-18 22:00:00 +0000,2022-01-18 15:00:00 -0700,5.2,4.6
2022-01-18 23:00:00 +0000,2022-01-18 16:00:00 -0700,6.4,5.5
2022-01-19 00:00:00 +0000,2022-01-18 17:00:00 -0700,7.6,6.5
2022-01-19 01:00:00 +0000,2022-01-18 18:00:00 -0700,6,6.2
2022-01-19 02:00:00 +0000,2022-01-18 19:00:00 -0700,6,6.1
2022-01-19 03:00:00 +0000,2022-01-18 20:00:00 -0700,5.1,5.6
2022-01-19 04:00:00 +0000,2022-01-18 21:00:00 -0700,4.9,5.2
2022-01-19 05:00:00 +0000,2022-01-18 22:00:00 -0700,5.9,5.5
2022-01-19 06:00:00 +0000,2022-01-18 23:00:00 -0700,7.5,6.5
2022-01-19 07:00:00 +0000,2022-01-19 00:00:00 -0700,6.8,6.5
2022-01-19 08:00:00 +0000,2022-01-19 01:00:00 -0700,4.3,5.5
2022-01-19 09:00:00 +0000,2022-01-19 02:00:00 -0700,3.2,4.3
2022-01-19 10:00:00 +0000,2022-01-19 03:00:00 -0700,3.3,3.8
2022-01-19 11:00:00 +0000,2022-01-19 04:00:00 -0700,4.6,4.2
2022-01-19 12:00:00 +0000,2022-01-19 05:00:00 -0700,5.1,4.6
2022-01-19 13:00:00 +0000,2022-01-19 06:00:00 -0700,6.3,5.4
2022-01-19 14:00:00 +0000,2022-01-19 07:00:00 -0700,7.4,6.4
2022-01-19 15:00:00 +0000,2022-01-19 08:00:00 -0700,9.4,7.9
2022-01-19 16:00:00 +0000,2022-01-19 09:00:00 -0700,12.1,10
2022-01-19 17:00:00 +0000,2022-01-19 10:00:00 -0700,12.5,11.2
2022-01-19 18:00:00 +0000,2022-01-19 11:00:00 -0700,14.8,13
2022-01-19 19:00:00 +0000,2022-01-19 12:00:00 -0700,12.2,12.6
2022-01-19 20:00:00 +0000,2022-01-19 13:00:00 -0700,12.6,12.6
2022-01-19 21:00:00 +0000,2022-01-19 14:00:00 -0700,13.8,13.2
2022-01-19 22:00:00 +0000,2022-01-19 15:00:00 -0700,14,13.6
2022-01-19 23:00:00 +0000,2022-01-19 16:00:00 -0700,13.6,13.6
2022-01-20 00:00:00 +0000,2022-01-19 17:00:00 -0700,11.8,12.7
2022-01-20 01:00:00 +0000,2022-01-19 18:00:00 -0700,11.3,12
2022-01-20 02:00:00 +0000,2022-01-19 19:00:00 -0700,17.5,14.5
2022-01-20 03:00:00 +0000,2022-01-19 20:00:00 -0700,11.2,13.1
2022-01-20 04:00:00 +0000,2022-01-19 21:00:00 -0700,7.2,10
2022-01-20 05:00:00 +0000,2022-01-19 22:00:00 -0700,5.9,7.9
2022-01-20 06:00:00 +0000,2022-01-19 23:00:00 -0700,5.5,6.7
2022-01-20 07:00:00 +0000,2022-01-20 00:00:00 -0700,4.4,5.5
2022-01-20 08:00:00 +0000,2022-01-20 01:00:00 -0700,3.7,4.6
2022-01-20 09:00:00 +0000,2022-01-20 02:00:00 -0700,3.7,4.1
2022-01-20 10:00:00 +0000,2022-01-20 03:00:00 -0700,2.6,3.3
2022-01-20 11:00:00 +0000,2022-01-20 04:00:00 -0700,1.5,2.4
2022-01-20 12:00:00 +0000,2022-01-20 05:00:00 -0700,0.6,1.5
2022-01-20 13:00:00 +0000,2022-01-20 06:00:00 -0700,0.6,1
2022-01-20 14:00:00 +0000,2022-01-20 07:00:00 -0700,0.9,0.9
2022-01-20 15:00:00 +0000,2022-01-20 08:00:00 -0700,1.2,1
2022-01-20 16:00:00 +0000,2022-01-20 09:00:00 -0700,6.5,3.7
2022-01-20 17:00:00 +0000,2022-01-20 10:00:00 -0700,1.5,2.6
2022-01-20 18:00:00 +0000,2022-01-20 11:00:00 -0700,1.5,2
2022-01-20 19:00:00 +0000,2022-01-20 12:00:00 -0700,0.9,1.4
2022-01-20 20:00:00 +0000,2022-01-20 13:00:00 -0700,0.9,1.1
2022-01-20 21:00:00 +0000,2022-01-20 14:00:00 -0700,0.9,1
2022-01-20 22:00:00 +0000,2022-01-20 15:00:00 -0700,0.9,0.9
2022-01-20 23:00:00 +0000,2022-01-20 16:00:00 -0700,0.9,0.9
2022-01-21 00:00:00 +0000,2022-01-20 17:00:00 -0700,1.1,1
2022-01-21 01:00:00 +0000,2022-01-20 18:00:00 -0700,1.2,1.1
2022-01-21 02:00:00 +0000,2022-01-20 19:00:00 -0700,0.8,0.9
2022-01-21 03:00:00 +0000,2022-01-20 20:00:00 -0700,1.3,1.1
2022-01-21 04:00:00 +0000,2022-01-20 21:00:00 -0700,1.2,1.1
2022-01-21 05:00:00 +0000,2022-01-20 22:00:00 -0700,1.2,1.1
2022-01-21 06:00:00 +0000,2022-01-20 23:00:00 -0700,1.1,1.1
2022-01-21 07:00:00 +0000,2022-01-21 00:00:00 -0700,1,1
2022-01-21 08:00:00 +0000,2022-01-21 01:00:00 -0700,0.8,0.9
2022-01-21 09:00:00 +0000,2022-01-21 02:00:00 -0700,0.8,0.9
2022-01-21 10:00:00 +0000,2022-01-21 03:00:00 -0700,0.8,0.8
2022-01-21 11:00:00 +0000,2022-01-21 04:00:00 -0700,0.8,0.8
2022-01-21 12:00:00 +0000,2022-01-21 05:00:00 -0700,0.9,0.8
2022-01-21 13:00:00 +0000,2022-01-21 06:00:00 -0700,1,0.9
2022-01-21 14:00:00 +0000,2022-01-21 07:00:00 -0700,1.4,1.1
2022-01-21 15:00:00 +0000,2022-01-21 08:00:00 -0700,1.3,1.2
2022-01-21 16:00:00 +0000,2022-01-21 09:00:00 -0700,1.7,1.4
2022-01-21 17:00:00 +0000,2022-01-21 10:00:00 -0700,2.1,1.7
2022-01-21 18:00:00 +0000,2022-01-21 11:00:00 -0700,1.7,1.7
2022-01-21 19:00:00 +0000,2022-01-21 12:00:00 -0700,1.3,1.5
2022-01-21 20:00:00 +0000,2022-01-21 13:00:00 -0700,1.3,1.4
2022-01-21 21:00:00 +0000,2022-01-21 14:00:00 -0700,1.5,1.4
2022-01-21 22:00:00 +0000,2022-01-21 15:00:00 -0700,2.4,1.9
2022-01-21 23:00:00 +0000,2022-01-21 16:00:00 -0700,3.5,2.7
2022-01-22 00:00:00 +0000,2022-01-21 17:00:00 -0700,7.4,5
2022-01-22 01:00:00 +0000,2022-01-21 18:00:00 -0700,11.7,8.3
2022-01-22 02:00:00 +0000,2022-01-21 19:00:00 -0700,12.8,10.5
2022-01-22 03:00:00 +0000,2022-01-21 20:00:00 -0700,10.9,10.7
2022-01-22 04:00:00 +0000,2022-01-21 21:00:00 -0700,10.7,10.7
2022-01-22 05:00:00 +0000,2022-01-21 22:00:00 -0700,14.1,12.4
2022-01-22 06:00:00 +0000,2022-01-21 23:00:00 -0700,15.7,14
2022-01-22 07:00:00 +0000,2022-01-22 00:00:00 -0700,11.9,12.9
2022-01-22 08:00:00 +0000,2022-01-22 01:00:00 -0700,8.9,10.9
2022-01-22 09:00:00 +0000,2022-01-22 02:00:00 -0700,6.8,8.8
2022-01-22 10:00:00 +0000,2022-01-22 03:00:00 -0700,2.7,5.7
2022-01-22 11:00:00 +0000,2022-01-22 04:00:00 -0700,2,3.8
2022-01-22 12:00:00 +0000,2022-01-22 05:00:00 -0700,1.7,2.7
2022-01-22 13:00:00 +0000,2022-01-22 06:00:00 -0700,1.6,2.1
2022-01-22 14:00:00 +0000,2022-01-22 07:00:00 -0700,1.8,1.9
2022-01-22 15:00:00 +0000,2022-01-22 08:00:00 -0700,1.4,1.6
2022-01-22 16:00:00 +0000,2022-01-22 09:00:00 -0700,1.7,1.6
2022-01-22 17:00:00 +0000,2022-01-22 10:00:00 -0700,2.2,1.9
2022-01-22 18:00:00 +0000,2022-01-22 11:00:00 -0700,2.1,2
2022-01-22 19:00:00 +0000,2022-01-22 12:00:00 -0700,2.5,2.2
2022-01-22 20:00:00 +0000,2022-01-22 13:00:00 -0700,3,2.6
2022-01-22 21:00:00 +0000,2022-01-22 14:00:00 -0700,2.7,2.6
2022-01-22 22:00:00 +0000,2022-01-22 15:00:00 -0700,1.7,2.1
2022-01-22 23:00:00 +0000,2022-01-22 16:00:00 -0700,1.5,1.8
2022-01-23 00:00:00 +0000,2022-01-22 17:00:00 -0700,2.1,1.9
2022-01-23 01:00:00 +0000,2022-01-22 18:00:00 -0700,2.1,2
2022-01-23 02:00:00 +0000,2022-01-22 19:00:00 -0700,2.7,2.3
2022-01-23 03:00:00 +0000,2022-01-22 20:00:00 -0700,2.7,2.5
2022-01-23 04:00:00 +0000,2022-01-22 21:00:00 -0700,2.1,2.3
2022-01-23 05:00:00 +0000,2022-01-22 22:00:00 -0700,1.6,1.9
2022-01-23 06:00:00 +0000,2022-01-22 23:00:00 -0700,1.8,1.8
2022-01-23 07:00:00 +0000,2022-01-23 00:00:00 -0700,1.6,1.7
2022-01-23 08:00:00 +0000,2022-01-23 01:00:00 -0700,1.3,1.5
2022-01-23 09:00:00 +0000,2022-01-23 02:00:00 -0700,1.1,1.3
2022-01-23 10:00:00 +0000,2022-01-23 03:00:00 -0700,1.3,1.3
2022-01-23 11:00:00 +0000,2022-01-23 04:00:00 -0700,1,1.1
2022-01-23 12:00:00 +0000,2022-01-23 05:00:00 -0700,0.8,0.9
2022-01-23 13:00:00 +0000,2022-01-23 06:00:00 -0700,0.8,0.8
2022-01-23 14:00:00 +0000,2022-01-23 07:00:00 -0700,0.9,0.8
2022-01-23 15:00:00 +0000,2022-01-23 08:00:00 -0700,1,0.9
2022-01-23 16:00:00 +0000,2022-01-23 09:00:00 -0700,1.2,1
2022-01-23 17:00:00 +0000,2022-01-23 10:00:00 -0700,1.5,1.2
2022-01-23 18:00:00 +0000,2022-01-23 11:00:00 -0700,1.9,1.5
2022-01-23 19:00:00 +0000,2022-01-23 12:00:00 -0700,1.6,1.5
2022-01-23 20:00:00 +0000,2022-01-23 13:00:00 -0700,1.4,1.4
2022-01-23 21:00:00 +0000,2022-01-23 14:00:00 -0700,1.2,1.3
2022-01-23 22:00:00 +0000,2022-01-23 15:00:00 -0700,0.9,1.1
2022-01-23 23:00:00 +0000,2022-01-23 16:00:00 -0700,2.5,1.8
2022-01-24 00:00:00 +0000,2022-01-23 17:00:00 -0700,13,7.4
2022-01-24 01:00:00 +0000,2022-01-23 18:00:00 -0700,7.2,7.3
2022-01-24 02:00:00 +0000,2022-01-23 19:00:00 -0700,4.1,5.7
2022-01-24 03:00:00 +0000,2022-01-23 20:00:00 -0700,3.2,4.4
2022-01-24 04:00:00 +0000,2022-01-23 21:00:00 -0700,2.6,3.5
2022-01-24 05:00:00 +0000,2022-01-23 22:00:00 -0700,1.5,2.5
2022-01-24 06:00:00 +0000,2022-01-23 23:00:00 -0700,1.4,1.9
2022-01-24 07:00:00 +0000,2022-01-24 00:00:00 -0700,1.9,1.9
2022-01-24 08:00:00 +0000,2022-01-24 01:00:00 -0700,2.6,2.2
2022-01-24 09:00:00 +0000,2022-01-24 02:00:00 -0700,2,2.1
2022-01-24 10:00:00 +0000,2022-01-24 03:00:00 -0700,1.9,2
2022-01-24 11:00:00 +0000,2022-01-24 04:00:00 -0700,1.5,1.7
2022-01-24 12:00:00 +0000,2022-01-24 05:00:00 -0700,0.8,1.2
2022-01-24 13:00:00 +0000,2022-01-24 06:00:00 -0700,0.8,1
2022-01-24 14:00:00 +0000,2022-01-24 07:00:00 -0700,0.8,0.9
2022-01-24 15:00:00 +0000,2022-01-24 08:00:00 -0700,0.9,0.9
2022-01-24 16:00:00 +0000,2022-01-24 09:00:00 -0700,1.1,1
2022-01-24 17:00:00 +0000,2022-01-24 10:00:00 -0700,1.1,1
2022-01-24 18:00:00 +0000,2022-01-24 11:00:00 -0700,1.3,1.1
2022-01-24 19:00:00 +0000,2022-01-24 12:00:00 -0700,0.9,1
2022-01-24 20:00:00 +0000,2022-01-24 13:00:00 -0700,0.8,0.9
2022-01-24 21:00:00 +0000,2022-01-24 14:00:00 -0700,0.9,0.9
2022-01-24 22:00:00 +0000,2022-01-24 15:00:00 -0700,1,0.9
2022-01-24 23:00:00 +0000,2022-01-24 16:00:00 -0700,1.1,1
2022-01-25 00:00:00 +0000,2022-01-24 17:00:00 -0700,1.4,1.1
2022-01-25 01:00:00 +0000,2022-01-24 18:00:00 -0700,1.6,1.4
2022-01-25 02:00:00 +0000,2022-01-24 19:00:00 -0700,1.4,1.4
2022-01-25 03:00:00 +0000,2022-01-24 20:00:00 -0700,1.2,1.3
2022-01-25 04:00:00 +0000,2022-01-24 21:00:00 -0700,1.1,1.2
2022-01-25 05:00:00 +0000,2022-01-24 22:00:00 -0700,1.3,1.2
2022-01-25 06:00:00 +0000,2022-01-24 23:00:00 -0700,1.2,1.2
2022-01-25 07:00:00 +0000,2022-01-25 00:00:00 -0700,1,1.1
2022-01-25 08:00:00 +0000,2022-01-25 01:00:00 -0700,0.8,0.9
2022-01-25 09:00:00 +0000,2022-01-25 02:00:00 -0700,NA,NA
2022-01-25 10:00:00 +0000,2022-01-25 03:00:00 -0700,NA,NA
2022-01-25 11:00:00 +0000,2022-01-25 04:00:00 -0700,NA,NA
2022-01-25 12:00:00 +0000,2022-01-25 05:00:00 -0700,NA,NA
2022-01-25 13:00:00 +0000,2022-01-25 06:00:00 -0700,NA,NA
2022-01-25 14:00:00 +0000,2022-01-25 07:00:00 -0700,NA,NA
2022-01-25 15:00:00 +0000,2022-01-25 08:00:00 -0700,NA,NA
2022-01-25 16:00:00 +0000,2022-01-25 09:00:00 -0700,NA,NA
